TimeCST,TemperatureF,Dew PointF,Humidity,Sea Level PressureIn,VisibilityMPH,Wind Direction,Wind SpeedMPH,Gust SpeedMPH,PrecipitationIn,Events,Conditions,WindDirDegrees,DateUTC
12:15 AM,28.4,24.8,86,30.11,4.0,NNW,6.9,-,N/A,Snow,Light Snow,340,2013-03-01 06:15:00
12:35 AM,28.4,24.8,86,30.11,4.0,NNW,5.8,-,N/A,Snow,Light Snow,340,2013-03-01 06:35:00
12:55 AM,28.4,24.8,86,30.11,4.0,NNW,6.9,-,N/A,Snow,Light Snow,340,2013-03-01 06:55:00
1:15 AM,28.4,24.8,86,30.11,5.0,NNW,5.8,-,N/A,Snow,Light Snow,340,2013-03-01 07:15:00
1:35 AM,28.4,24.8,86,30.11,7.0,North,5.8,-,N/A,,Overcast,350,2013-03-01 07:35:00
2:15 AM,28.4,24.8,86,30.11,5.0,North,4.6,-,N/A,,Overcast,360,2013-03-01 08:15:00
2:35 AM,28.4,24.8,86,30.11,7.0,North,6.9,-,N/A,,Overcast,10,2013-03-01 08:35:00
2:55 AM,28.4,24.8,86,30.11,7.0,NNE,8.1,-,N/A,,Overcast,30,2013-03-01 08:55:00
3:35 AM,28.4,21.2,74,30.11,7.0,NE,10.4,-,N/A,,Overcast,40,2013-03-01 09:35:00
3:55 AM,28.4,21.2,74,30.11,7.0,NE,9.2,-,N/A,,Overcast,40,2013-03-01 09:55:00
4:15 AM,26.6,21.2,80,30.12,5.0,NE,8.1,-,N/A,,Overcast,50,2013-03-01 10:15:00
4:35 AM,26.6,21.2,80,30.12,7.0,NE,6.9,-,N/A,,Overcast,40,2013-03-01 10:35:00
4:55 AM,26.6,21.2,80,30.13,10.0,NE,11.5,-,N/A,,Overcast,50,2013-03-01 10:55:00
5:15 AM,26.6,19.4,74,30.13,10.0,NE,8.1,-,N/A,,Overcast,40,2013-03-01 11:15:00
5:35 AM,26.6,19.4,74,30.14,10.0,NNE,8.1,-,N/A,,Overcast,30,2013-03-01 11:35:00
5:55 AM,26.6,17.6,69,30.14,10.0,NNE,5.8,-,N/A,,Overcast,30,2013-03-01 11:55:00
6:15 AM,26.6,15.8,64,30.15,10.0,NNE,9.2,-,N/A,,Overcast,30,2013-03-01 12:15:00
6:35 AM,26.6,15.8,64,30.15,10.0,NNE,8.1,-,N/A,,Overcast,30,2013-03-01 12:35:00
6:55 AM,26.6,15.8,64,30.15,10.0,NNE,5.8,-,N/A,,Overcast,20,2013-03-01 12:55:00
7:15 AM,26.6,15.8,64,30.16,10.0,NNE,8.1,-,N/A,,Overcast,20,2013-03-01 13:15:00
7:35 AM,26.6,15.8,64,30.17,10.0,NNE,10.4,-,N/A,,Overcast,20,2013-03-01 13:35:00
7:55 AM,26.6,15.8,64,30.18,10.0,NNE,16.1,-,N/A,,Overcast,30,2013-03-01 13:55:00
8:15 AM,26.6,15.8,64,30.18,10.0,NNE,11.5,16.1,N/A,,Overcast,30,2013-03-01 14:15:00
8:35 AM,26.6,15.8,64,30.18,10.0,NNE,13.8,19.6,N/A,,Overcast,30,2013-03-01 14:35:00
8:55 AM,26.6,15.8,64,30.19,10.0,NNE,10.4,-,N/A,,Overcast,30,2013-03-01 14:55:00
9:15 AM,26.6,17.6,69,30.19,10.0,NNE,13.8,-,N/A,,Overcast,30,2013-03-01 15:15:00
9:35 AM,26.6,17.6,69,30.20,10.0,NNE,13.8,-,N/A,,Overcast,30,2013-03-01 15:35:00
9:55 AM,26.6,15.8,64,30.20,10.0,NE,17.3,-,N/A,,Overcast,40,2013-03-01 15:55:00
10:15 AM,28.4,15.8,59,30.20,10.0,NNE,16.1,19.6,N/A,,Overcast,30,2013-03-01 16:15:00
10:35 AM,28.4,17.6,64,30.20,10.0,NE,16.1,-,N/A,,Overcast,40,2013-03-01 16:35:00
10:55 AM,28.4,15.8,59,30.20,10.0,NNE,16.1,-,N/A,,Overcast,30,2013-03-01 16:55:00
11:15 AM,28.4,15.8,59,30.21,10.0,NNE,11.5,-,N/A,,Overcast,30,2013-03-01 17:15:00
11:35 AM,28.4,15.8,59,30.21,10.0,NE,16.1,-,N/A,,Overcast,40,2013-03-01 17:35:00
12:15 PM,28.4,15.8,59,30.21,10.0,NNE,10.4,-,N/A,,Overcast,20,2013-03-01 18:15:00
12:35 PM,30.2,15.8,55,30.20,10.0,NNE,10.4,-,N/A,,Overcast,20,2013-03-01 18:35:00
12:55 PM,30.2,15.8,55,30.19,10.0,North,10.4,-,N/A,,Overcast,10,2013-03-01 18:55:00
1:15 PM,30.2,15.8,55,30.18,10.0,NNE,13.8,18.4,N/A,,Overcast,20,2013-03-01 19:15:00
1:35 PM,30.2,15.8,55,30.18,10.0,NE,13.8,-,N/A,,Overcast,40,2013-03-01 19:35:00
1:55 PM,30.2,15.8,55,30.18,10.0,NNE,12.7,-,N/A,,Overcast,30,2013-03-01 19:55:00
2:15 PM,30.2,15.8,55,30.18,10.0,NNE,15.0,-,N/A,,Overcast,20,2013-03-01 20:15:00
2:35 PM,30.2,17.6,60,30.19,10.0,NE,16.1,-,N/A,,Overcast,40,2013-03-01 20:35:00
3:15 PM,30.2,17.6,60,30.20,10.0,NNE,12.7,-,N/A,,Overcast,20,2013-03-01 21:15:00
3:35 PM,30.2,17.6,60,30.20,10.0,NE,11.5,-,N/A,,Overcast,40,2013-03-01 21:35:00
3:55 PM,28.4,17.6,64,30.21,10.0,NNE,12.7,-,N/A,,Overcast,20,2013-03-01 21:55:00
4:15 PM,28.4,17.6,64,30.21,10.0,NNE,15.0,-,N/A,,Overcast,20,2013-03-01 22:15:00
4:35 PM,28.4,17.6,64,30.22,10.0,NNE,10.4,-,N/A,,Overcast,30,2013-03-01 22:35:00
4:55 PM,28.4,17.6,64,30.23,10.0,NNE,11.5,-,N/A,,Overcast,30,2013-03-01 22:55:00
5:15 PM,28.4,19.4,69,30.23,10.0,North,9.2,-,N/A,,Overcast,10,2013-03-01 23:15:00
5:35 PM,28.4,17.6,64,30.23,10.0,North,11.5,-,N/A,,Overcast,10,2013-03-01 23:35:00
5:55 PM,28.4,17.6,64,30.24,10.0,NNE,11.5,-,N/A,,Overcast,20,2013-03-01 23:55:00
6:15 PM,28.4,17.6,64,30.24,10.0,NNE,8.1,-,N/A,,Overcast,20,2013-03-02 00:15:00
6:35 PM,28.4,17.6,64,30.25,10.0,NNE,8.1,-,N/A,,Overcast,20,2013-03-02 00:35:00
6:55 PM,28.4,17.6,64,30.25,10.0,NNE,11.5,-,N/A,,Overcast,20,2013-03-02 00:55:00
7:15 PM,28.4,17.6,64,30.26,10.0,North,10.4,-,N/A,,Overcast,10,2013-03-02 01:15:00
7:35 PM,28.4,17.6,64,30.26,10.0,North,9.2,-,N/A,,Overcast,10,2013-03-02 01:35:00
8:15 PM,26.6,17.6,69,30.26,10.0,North,9.2,-,N/A,,Overcast,10,2013-03-02 02:15:00
8:35 PM,26.6,17.6,69,30.26,10.0,North,6.9,-,N/A,,Overcast,10,2013-03-02 02:35:00
8:55 PM,26.6,17.6,69,30.27,10.0,North,8.1,-,N/A,,Overcast,10,2013-03-02 02:55:00
9:15 PM,26.6,17.6,69,30.27,10.0,North,8.1,-,N/A,,Overcast,10,2013-03-02 03:15:00
9:35 PM,26.6,17.6,69,30.27,10.0,North,9.2,-,N/A,,Overcast,10,2013-03-02 03:35:00
9:55 PM,26.6,17.6,69,30.27,10.0,North,5.8,-,N/A,,Overcast,360,2013-03-02 03:55:00
10:15 PM,26.6,17.6,69,30.27,10.0,North,4.6,-,N/A,,Overcast,350,2013-03-02 04:15:00
10:35 PM,26.6,17.6,69,30.26,10.0,North,5.8,-,N/A,,Overcast,350,2013-03-02 04:35:00
10:55 PM,26.6,17.6,69,30.26,10.0,NNW,4.6,-,N/A,,Overcast,340,2013-03-02 04:55:00
11:15 PM,26.6,17.6,69,30.26,10.0,NNW,6.9,-,N/A,,Overcast,340,2013-03-02 05:15:00
11:35 PM,26.6,17.6,69,30.26,10.0,NNW,6.9,-,N/A,,Overcast,330,2013-03-02 05:35:00
11:55 PM,26.6,17.6,69,30.26,10.0,NNW,8.1,-,N/A,,Overcast,340,2013-03-02 05:55:00